Location: *
(41.0833°N, 73.4167°W)
Time: 22:21:55
(UTC+00:00)

Cosmos 1140 Rocket - Pass Details

Date: 22 October 2019
Orbit: 745 x 766 km, 74.1° (Epoch: 21 November)

Event Time Altitude Azimuth Distance (km) Brightness Sun altitude
Exits shadow 08:56:37 88° 249° (WSW) 760 3.3 -26.3°
Maximum altitude 08:56:40 88° 285° (WNW) 760 3.3 -26.3°
Drops below altitude 10° 09:01:51 10° 19° (NNE) 2,279 6.2 -25.3°
Sets 09:04:12 0° 20° (NNE) 3,205 7.1 -24.9°
